• In Czech Republic
  • List of Countries
  • For 7 days
  • Water Temperature
  • Satellite Maps
  • Weather Map
  • Weather Widgets
  • user-avatar
    Login

    Hourly Weather Portsmouth

    Today, 12 December, Tuesday

    Time Temperature Precipitation Wind Pressure Humidity
    00:00 +4°C° 0 mm 4 mps 760 mmHg 76%
    01:00 +3°C° 0 mm 5 mps 759 mmHg 77%
    02:00 +3°C° 0 mm 5 mps 758 mmHg 75%
    03:00 +3°C° 0 mm 5 mps 757 mmHg 74%
    04:00 +3°C° 0 mm 5 mps 757 mmHg 73%
    05:00 +3°C° 0 mm 6 mps 756 mmHg 74%
    06:00 +3°C° 0 mm 6 mps 755 mmHg 76%
    07:00 +3°C° 0 mm 6 mps 755 mmHg 77%
    08:00 +4°C° 0 mm 6 mps 754 mmHg 77%
    09:00 +5°C° 0 mm 6 mps 754 mmHg 76%
    10:00 +7°C° 0 mm 6 mps 753 mmHg 76%
    11:00 +8°C° 0 mm 6 mps 753 mmHg 72%
    12:00 +9°C° 0 mm 6 mps 752 mmHg 69%
    13:00 +10°C° 0 mm 6 mps 751 mmHg 65%
    14:00 +9°C° 0 mm 6 mps 751 mmHg 64%
    15:00 +8°C° 0 mm 6 mps 750 mmHg 63%
    16:00 +6°C° 0 mm 7 mps 750 mmHg 62%
    17:00 +5°C° 0 mm 8 mps 751 mmHg 58%
    18:00 +3°C° 0 mm 9 mps 752 mmHg 54%
    19:00 +2°C° 0 mm 11 mps 752 mmHg 50%
    20:00 0°C° 0 mm 10 mps 753 mmHg 50%
    21:00 -3°C° 0 mm 10 mps 754 mmHg 49%
    22:00 -5°C° 0 mm 10 mps 755 mmHg 49%
    23:00 -5°C° 0 mm 9 mps 755 mmHg 49%

    Tomorrow, 13 December, Wednesday

    Time Temperature Precipitation Wind Pressure Humidity
    00:00 -6°C° 0 mm 9 mps 755 mmHg 48%
    01:00 -6°C° 0 mm 8 mps 756 mmHg 48%
    02:00 -6°C° 0 mm 8 mps 756 mmHg 48%
    03:00 -6°C° 0 mm 8 mps 756 mmHg 48%
    04:00 -6°C° 0 mm 8 mps 756 mmHg 47%
    05:00 -6°C° 0 mm 9 mps 757 mmHg 46%
    06:00 -6°C° 0 mm 9 mps 757 mmHg 45%
    07:00 -6°C° 0 mm 9 mps 758 mmHg 43%
    08:00 -6°C° 0 mm 9 mps 758 mmHg 41%
    09:00 -5°C° 0 mm 9 mps 759 mmHg 39%
    10:00 -5°C° 0 mm 9 mps 759 mmHg 37%
    11:00 -4°C° 0 mm 9 mps 759 mmHg 35%
    12:00 -2°C° 0 mm 8 mps 759 mmHg 33%
    13:00 -1°C° 0 mm 8 mps 758 mmHg 32%
    14:00 -1°C° 0 mm 8 mps 758 mmHg 32%
    15:00 -1°C° 0 mm 7 mps 758 mmHg 32%
    16:00 0°C° 0 mm 7 mps 758 mmHg 32%
    17:00 -1°C° 0 mm 6 mps 758 mmHg 35%
    18:00 -1°C° 0 mm 6 mps 758 mmHg 37%
    19:00 0°C° 0 mm 5 mps 758 mmHg 39%
    20:00 -1°C° 0 mm 6 mps 758 mmHg 39%
    21:00 +1°C° 0 mm 6 mps 757 mmHg 39%
    22:00 +2°C° 0 mm 7 mps 757 mmHg 40%
    23:00 +2°C° 0.1 mm 7 mps 756 mmHg 43%

    Day after tomorrow, 14 December, Thursday

    Time Temperature Precipitation Wind Pressure Humidity
    00:00 +2°C° 0.1 mm 7 mps 756 mmHg 47%
    01:00 +2°C° 0.1 mm 7 mps 755 mmHg 51%
    02:00 +1°C° 0 mm 8 mps 754 mmHg 53%
    03:00 +1°C° 0 mm 8 mps 754 mmHg 56%
    04:00 +1°C° 0 mm 8 mps 753 mmHg 58%
    05:00 +1°C° 0 mm 8 mps 753 mmHg 60%
    06:00 +1°C° 0 mm 8 mps 753 mmHg 61%
    07:00 +1°C° 0 mm 8 mps 754 mmHg 63%
    08:00 +2°C° 0 mm 9 mps 754 mmHg 60%
    09:00 +5°C° 0 mm 9 mps 754 mmHg 56%
    10:00 +6°C° 0 mm 9 mps 755 mmHg 53%
    11:00 +7°C° 0 mm 9 mps 755 mmHg 51%
    12:00 +7°C° 0 mm 8 mps 755 mmHg 49%
    13:00 +9°C° 0 mm 8 mps 756 mmHg 47%
    14:00 +8°C° 0 mm 7 mps 756 mmHg 50%
    15:00 +7°C° 0 mm 6 mps 757 mmHg 53%
    16:00 +7°C° 0 mm 5 mps 758 mmHg 55%
    17:00 +5°C° 0 mm 5 mps 759 mmHg 58%
    18:00 +2°C° 0 mm 5 mps 760 mmHg 61%
    19:00 +1°C° 0 mm 5 mps 761 mmHg 64%
    20:00 0°C° 0 mm 5 mps 762 mmHg 63%
    21:00 0°C° 0 mm 5 mps 762 mmHg 62%
    22:00 -1°C° 0 mm 4 mps 763 mmHg 61%
    23:00 -1°C° 0 mm 4 mps 763 mmHg 62%

    15 December, Friday

    Time Temperature Precipitation Wind Pressure Humidity
    00:00 -1°C° 0 mm 4 mps 763 mmHg 64%
    01:00 -1°C° 0 mm 4 mps 763 mmHg 65%
    02:00 -1°C° 0 mm 4 mps 763 mmHg 67%
    03:00 -1°C° 0 mm 4 mps 763 mmHg 69%
    04:00 0°C° 0 mm 3 mps 763 mmHg 71%
    05:00 -1°C° 0 mm 4 mps 763 mmHg 71%
    06:00 0°C° 0 mm 4 mps 762 mmHg 72%
    07:00 0°C° 0 mm 4 mps 762 mmHg 72%
    08:00 +1°C° 0 mm 4 mps 762 mmHg 71%
    09:00 +3°C° 0 mm 4 mps 762 mmHg 70%
    10:00 +4°C° 0 mm 4 mps 761 mmHg 70%
    11:00 +4°C° 0.1 mm 4 mps 760 mmHg 73%
    12:00 +4°C° 0.1 mm 4 mps 759 mmHg 76%
    13:00 +5°C° 0.1 mm 4 mps 758 mmHg 80%
    14:00 +5°C° 0.3 mm 3 mps 757 mmHg 82%
    15:00 +5°C° 0.3 mm 3 mps 756 mmHg 85%
    16:00 +7°C° 0.3 mm 3 mps 756 mmHg 87%
    17:00 +4°C° 0.2 mm 4 mps 756 mmHg 89%
    18:00 +3°C° 0.2 mm 4 mps 755 mmHg 90%
    19:00 +1°C° 0.2 mm 5 mps 755 mmHg 91%
    20:00 0°C° 0 mm 5 mps 756 mmHg 90%
    21:00 0°C° 0 mm 5 mps 756 mmHg 90%
    22:00 -2°C° 0 mm 6 mps 756 mmHg 89%
    23:00 -2°C° 0 mm 5 mps 756 mmHg 89%

    16 December, Saturday

    Time Temperature Precipitation Wind Pressure Humidity
    00:00 -2°C° 0 mm 5 mps 756 mmHg 88%
    01:00 -2°C° 0 mm 5 mps 756 mmHg 87%
    02:00 -3°C° 0 mm 6 mps 757 mmHg 83%
    03:00 -2°C° 0 mm 7 mps 757 mmHg 79%
    04:00 -2°C° 0 mm 7 mps 758 mmHg 75%
    05:00 -2°C° 0 mm 8 mps 759 mmHg 69%
    06:00 -2°C° 0 mm 8 mps 760 mmHg 64%
    07:00 -3°C° 0 mm 9 mps 761 mmHg 59%
    08:00 -3°C° 0 mm 9 mps 762 mmHg 53%
    09:00 -1°C° 0 mm 9 mps 763 mmHg 47%
    10:00 0°C° 0 mm 9 mps 764 mmHg 42%
    11:00 +1°C° 0 mm 8 mps 765 mmHg 40%
    12:00 +1°C° 0 mm 8 mps 765 mmHg 39%
    13:00 +3°C° 0 mm 7 mps 765 mmHg 38%
    14:00 +3°C° 0 mm 6 mps 765 mmHg 40%
    15:00 +3°C° 0 mm 5 mps 766 mmHg 42%
    16:00 +3°C° 0 mm 4 mps 766 mmHg 44%
    17:00 +3°C° 0 mm 3 mps 767 mmHg 48%
    18:00 +2°C° 0 mm 3 mps 767 mmHg 52%
    19:00 +2°C° 0 mm 2 mps 768 mmHg 55%
    20:00 +1°C° 0 mm 3 mps 768 mmHg 58%
    21:00 +1°C° 0 mm 3 mps 768 mmHg 60%
    22:00 0°C° 0 mm 4 mps 769 mmHg 63%
    23:00 0°C° 0 mm 4 mps 768 mmHg 62%

    17 December, Sunday

    Time Temperature Precipitation Wind Pressure Humidity
    00:00 0°C° 0 mm 4 mps 768 mmHg 62%
    01:00 0°C° 0 mm 4 mps 767 mmHg 61%
    02:00 0°C° 0 mm 5 mps 767 mmHg 61%
    03:00 0°C° 0 mm 5 mps 767 mmHg 61%
    04:00 -1°C° 0 mm 6 mps 767 mmHg 61%
    05:00 +1°C° 0 mm 6 mps 767 mmHg 62%
    06:00 0°C° 0 mm 7 mps 767 mmHg 63%
    07:00 0°C° 0 mm 7 mps 767 mmHg 64%
    08:00 +3°C° 0 mm 7 mps 767 mmHg 61%
    09:00 +5°C° 0 mm 8 mps 767 mmHg 58%
    10:00 +6°C° 0 mm 8 mps 767 mmHg 55%
    11:00 +7°C° 0 mm 8 mps 766 mmHg 53%
    12:00 +10°C° 0 mm 8 mps 765 mmHg 51%
    13:00 +11°C° 0 mm 8 mps 764 mmHg 49%
    14:00 +10°C° 0 mm 7 mps 764 mmHg 51%
    15:00 +10°C° 0 mm 6 mps 764 mmHg 54%
    16:00 +10°C° 0 mm 6 mps 764 mmHg 56%
    17:00 +10°C° 0 mm 6 mps 764 mmHg 57%
    18:00 +9°C° 0 mm 5 mps 764 mmHg 59%
    19:00 +9°C° 0 mm 5 mps 764 mmHg 60%
    20:00 +9°C° 0.1 mm 5 mps 764 mmHg 62%
    21:00 +9°C° 0.1 mm 6 mps 764 mmHg 63%
    22:00 +9°C° 0.1 mm 6 mps 764 mmHg 64%
    23:00 +9°C° 0 mm 6 mps 764 mmHg 65%
    Show more